ARU932 TNCA-TNCC

Flight info

Callsign ARU932
Flight time 0h 13m
Altitude 7000
Route ADRIV1F ADRIV ARUB1B
Aircraft A320/M-SDE3FGHIRWY/LB1

Departure

Time 2026-04-23 20:02
Airport Queen Beatrix International Airport (TNCA)

Arrival

Time 2026-04-23 20:16
Airport Hato International Airport (TNCC)
Time Latitude Longitude Altitude Speed Heading
2026-04-23 19:41 12.50358 -70.01066 47 ft 0 kts 14°
2026-04-23 19:55 12.50334 -70.01071 46 ft 4 kts
2026-04-23 19:55 12.50307 -70.01072 47 ft 4 kts 353°
2026-04-23 19:55 12.50281 -70.01065 47 ft 4 kts 333°
2026-04-23 19:55 12.50261 -70.01050 44 ft 4 kts 297°
2026-04-23 19:56 12.50257 -70.01040 41 ft 0 kts 282°
2026-04-23 19:58 12.50259 -70.01056 45 ft 5 kts 276°
2026-04-23 19:58 12.50246 -70.01102 47 ft 8 kts 242°
2026-04-23 19:58 12.50235 -70.01170 47 ft 11 kts 278°
2026-04-23 19:59 12.50252 -70.01261 47 ft 15 kts 282°
2026-04-23 19:59 12.50277 -70.01372 47 ft 18 kts 283°
2026-04-23 19:59 12.50310 -70.01502 46 ft 21 kts 284°
2026-04-23 19:59 12.50341 -70.01633 46 ft 17 kts 283°
2026-04-23 20:00 12.50370 -70.01761 46 ft 20 kts 284°
2026-04-23 20:00 12.50407 -70.01910 45 ft 23 kts 283°
2026-04-23 20:00 12.50448 -70.02083 45 ft 27 kts 285°
2026-04-23 20:00 12.50496 -70.02281 45 ft 31 kts 284°
2026-04-23 20:01 12.50531 -70.02429 43 ft 33 kts 284°
2026-04-23 20:01 12.50573 -70.02640 44 ft 21 kts 261°
2026-04-23 20:01 12.50481 -70.02744 37 ft 22 kts 198°
2026-04-23 20:01 12.50409 -70.02664 35 ft 21 kts 103°
2026-04-23 20:02 12.50317 -70.02262 37 ft 95 kts 103°
2026-04-23 20:02 12.50115 -70.01405 88 ft 146 kts 104°
2026-04-23 20:02 12.49839 -70.00379 614 ft 159 kts 104°
2026-04-23 20:02 12.49548 -69.99204 1127 ft 181 kts 101°
2026-04-23 20:03 12.49236 -69.97863 1634 ft 206 kts 102°
2026-04-23 20:03 12.48886 -69.96356 2270 ft 231 kts 104°
2026-04-23 20:03 12.48489 -69.94672 2905 ft 251 kts 104°
2026-04-23 20:03 12.48071 -69.92906 3778 ft 260 kts 103°
2026-04-23 20:04 12.47639 -69.91085 4771 ft 267 kts 104°
2026-04-23 20:04 12.47195 -69.89213 5707 ft 274 kts 104°
2026-04-23 20:04 12.46736 -69.87293 6499 ft 283 kts 104°
2026-04-23 20:04 12.46249 -69.85254 6797 ft 310 kts 104°
2026-04-23 20:05 12.45709 -69.82994 6900 ft 342 kts 104°
2026-04-23 20:05 12.45109 -69.80559 6920 ft 359 kts 105°
2026-04-23 20:05 12.44446 -69.78076 6928 ft 363 kts 106°
2026-04-23 20:05 12.43751 -69.75597 6929 ft 363 kts 106°
2026-04-23 20:06 12.43049 -69.73118 6921 ft 363 kts 106°
2026-04-23 20:06 12.42349 -69.70633 6923 ft 363 kts 106°
2026-04-23 20:06 12.41663 -69.68177 6932 ft 363 kts 106°
2026-04-23 20:06 12.40973 -69.65689 6930 ft 363 kts 106°
2026-04-23 20:07 12.40283 -69.63203 6928 ft 363 kts 106°
2026-04-23 20:07 12.39595 -69.60719 6925 ft 363 kts 106°
2026-04-23 20:07 12.38834 -69.58256 6926 ft 363 kts 109°
2026-04-23 20:07 12.37977 -69.55820 6930 ft 364 kts 110°
2026-04-23 20:08 12.37071 -69.53403 6940 ft 364 kts 111°
2026-04-23 20:08 12.36147 -69.50991 6942 ft 364 kts 111°
2026-04-23 20:08 12.35224 -69.48576 6940 ft 365 kts 111°
2026-04-23 20:08 12.34310 -69.46149 6941 ft 365 kts 111°
2026-04-23 20:09 12.33407 -69.43722 6942 ft 366 kts 111°
2026-04-23 20:09 12.32511 -69.41290 6943 ft 366 kts 111°
2026-04-23 20:09 12.31615 -69.38853 6943 ft 366 kts 111°
2026-04-23 20:09 12.30723 -69.36413 6945 ft 366 kts 110°
2026-04-23 20:10 12.29842 -69.33997 6584 ft 359 kts 111°
2026-04-23 20:10 12.28971 -69.31608 5898 ft 356 kts 111°
2026-04-23 20:10 12.28107 -69.29250 5248 ft 351 kts 111°
2026-04-23 20:10 12.27257 -69.26933 4644 ft 346 kts 111°
2026-04-23 20:11 12.26431 -69.24683 4042 ft 340 kts 111°
2026-04-23 20:11 12.25610 -69.22449 3488 ft 333 kts 110°
2026-04-23 20:11 12.24799 -69.20244 2852 ft 330 kts 110°
2026-04-23 20:11 12.23988 -69.18029 2215 ft 327 kts 110°
2026-04-23 20:12 12.23209 -69.15899 1990 ft 321 kts 108°
2026-04-23 20:12 12.22588 -69.13839 1998 ft 284 kts 104°
2026-04-23 20:12 12.22156 -69.11987 2003 ft 253 kts 101°
2026-04-23 20:12 12.21818 -69.10321 2003 ft 226 kts 101°
2026-04-23 20:13 12.21529 -69.08835 2009 ft 201 kts 101°
2026-04-23 20:13 12.21276 -69.07537 1953 ft 172 kts 99°
2026-04-23 20:13 12.21069 -69.06417 1903 ft 154 kts 100°
2026-04-23 20:13 12.20862 -69.05383 1820 ft 146 kts 100°
2026-04-23 20:14 12.20664 -69.04370 1683 ft 144 kts 98°
2026-04-23 20:14 12.20476 -69.03379 1434 ft 142 kts 99°
2026-04-23 20:14 12.20259 -69.02404 1220 ft 139 kts 102°
2026-04-23 20:14 12.20044 -69.01429 1066 ft 139 kts 102°
2026-04-23 20:15 12.19839 -69.00473 797 ft 137 kts 101°
2026-04-23 20:15 12.19653 -68.99528 585 ft 133 kts 100°
2026-04-23 20:15 12.19449 -68.98627 374 ft 129 kts 101°
2026-04-23 20:15 12.19260 -68.97702 205 ft 135 kts 101°
2026-04-23 20:16 12.19057 -68.96775 56 ft 133 kts 102°
2026-04-23 20:16 12.18883 -68.95949 42 ft 101 kts 101°
2026-04-23 20:16 12.18785 -68.95478 41 ft 42 kts 102°
2026-04-23 20:16 12.18660 -68.95412 42 ft 22 kts 197°
2026-04-23 20:17 12.18612 -68.95536 41 ft 22 kts 289°
2026-04-23 20:17 12.18653 -68.95693 43 ft 16 kts 270°
2026-04-23 20:17 12.18590 -68.95724 43 ft 10 kts 193°
2026-04-23 20:17 12.18557 -68.95731 43 ft 0 kts 191°